Regional Weather Roundup
Issued by NWS

Home | Current Version | Previous Version | Graphics & Text | Print | Product List | Glossary On
Versions: 1 2 3 4 5 6 7 8 9 10 11 12 13 14 15 16 17 18 19 20 21 22 23 24 25 26 27 28 29 30 31 32 33 34 35 36 37 38 39 40 41 42 43 44 45 46 47 48 49 50
000
ASUS43 KFSD 260910
RWRSD

WEATHER ROUNDUP FOR SOUTH DAKOTA
NATIONAL WEATHER SERVICE SIOUX FALLS SD
400 AM CDT MON SEP 26 2016

NOTE: "FAIR" INDICATES FEW OR NO CLOUDS BELOW 12,000 FEET WITH NO
SIGNIFICANT WEATHER AND/OR OBSTRUCTIONS TO VISIBILITY.


SDZ001>005-009-010-012>017-261000-
NORTHWEST AND NORTH CENTRAL SOUTH DAKOTA

CITY           SKY/WX    TMP DP  RH WIND       PRES   REMARKS
BUFFALO          N/A     43  37  79 W8        30.19F
FAITH            N/A     46  38  73 W8        30.24F
MOBRIDGE       CLEAR     45  36  70 NW8       30.17F
$$

SDZ012>016-024>037-041>051-057-063-072>074-261000-
SOUTHWEST AND SOUTH CENTRAL SOUTH DAKOTA

CITY           SKY/WX    TMP DP  RH WIND       PRES   REMARKS
RAPID CTY ARPT CLEAR     41  34  76 NW6       30.28F
PIERRE         CLEAR     44  35  70 SW7       30.20F
CUSTER         CLEAR     41  30  65 W6        30.36F
ELLSWORTH AFB  CLEAR     46  34  63 W6        30.27F
PHILIP         CLEAR     43  36  76 W10       30.26F
PINE RIDGE     CLEAR     32  28  85 NW3       30.32F
WINNER         FAIR      47  35  63 SW7       30.25F
$$

SDZ004>011-016>023-039-040-261000-
NORTHEAST SOUTH DAKOTA

CITY           SKY/WX    TMP DP  RH WIND       PRES   REMARKS
ABERDEEN       CLEAR     42  34  73 W10       30.13S
WATERTOWN      CLEAR     49  36  61 W13       30.09F
BROOKINGS      CLEAR     46  36  68 NW10      30.11F
SISSETON         N/A     51  36  56 NW15      30.03F
$$

SDZ017-020-022-023-036>040-048>070-261000-
SOUTHEAST SOUTH DAKOTA

CITY           SKY/WX    TMP DP  RH WIND       PRES   REMARKS
SIOUX FALLS    CLEAR     45  36  70 W6        30.15F
HURON          CLEAR     42  34  73 W6        30.16S
CHAMBERLAIN    CLEAR     46  38  73 W5        30.22S
MITCHELL       PTCLDY    48  35  60 W10       30.18F
YANKTON        CLEAR     52  34  50 W13       30.18F
$$

ABBREVIATIONS USED IN REMARKS
   TC - TEMPERATURE IN CELSIUS
  WCI - WIND CHILL INDEX
   HX - HEAT INDEX
  VSB - VISIBILITY




USA.gov is the U.S. government's official web portal to all federal, state and local government web resources and services.